Time,TemperatureF,DewpointF,PressureIn,WindDirection,WindDirectionDegrees,WindSpeedMPH,WindSpeedGustMPH,Humidity,HourlyPrecipIn,Conditions,Clouds,dailyrainin,SoftwareType,DateUTC
2013-11-26 00:00:00,67.0,66.0,29.85,ESE,120,29.0,33.0,95,-99.99,,,-99.99,,2013-11-26 06:00:00,
2013-11-26 00:42:00,67.0,66.0,29.85,ESE,120,29.0,33.0,95,-99.99,,,-99.99,,2013-11-26 06:42:00,
2013-11-26 00:52:00,67.0,66.0,29.85,ESE,120,29.0,33.0,95,-99.99,,,-99.99,,2013-11-26 06:52:00,
2013-11-26 01:00:00,67.0,66.0,29.83,ESE,120,25.0,30.0,96,-99.99,,,-99.99,,2013-11-26 07:00:00,
2013-11-26 01:41:00,67.0,66.0,29.83,ESE,120,25.0,30.0,96,-99.99,,,-99.99,,2013-11-26 07:41:00,
2013-11-26 01:52:00,67.0,66.0,29.83,ESE,120,25.0,30.0,96,-99.99,,,-99.99,,2013-11-26 07:52:00,
2013-11-26 02:00:00,67.0,66.0,29.78,ESE,120,24.0,29.0,96,-99.99,,,-99.99,,2013-11-26 08:00:00,
2013-11-26 02:41:00,67.0,66.0,29.78,ESE,120,24.0,29.0,96,-99.99,,,-99.99,,2013-11-26 08:41:00,
2013-11-26 02:52:00,67.0,66.0,29.78,ESE,120,24.0,29.0,96,-99.99,,,-99.99,,2013-11-26 08:52:00,
2013-11-26 03:00:00,68.0,67.0,29.75,ESE,120,28.0,32.0,96,-99.99,,,-99.99,,2013-11-26 09:00:00,
2013-11-26 03:43:00,68.0,67.0,29.75,ESE,120,28.0,32.0,96,-99.99,,,-99.99,,2013-11-26 09:43:00,
2013-11-26 03:53:00,68.0,67.0,29.75,ESE,120,28.0,32.0,96,-99.99,,,-99.99,,2013-11-26 09:53:00,
2013-11-26 04:00:00,68.0,67.0,29.72,SE,140,26.0,29.0,98,-99.99,,,-99.99,,2013-11-26 10:00:00,
2013-11-26 04:43:00,68.0,67.0,29.72,SE,140,26.0,29.0,98,-99.99,,,-99.99,,2013-11-26 10:43:00,
2013-11-26 04:53:00,68.0,67.0,29.72,SE,140,26.0,29.0,98,-99.99,,,-99.99,,2013-11-26 10:53:00,
2013-11-26 05:00:00,67.0,67.0,29.71,ESE,110,21.0,22.0,97,-99.99,,,-99.99,,2013-11-26 11:00:00,
2013-11-26 05:42:00,67.0,67.0,29.71,ESE,110,21.0,22.0,97,-99.99,,,-99.99,,2013-11-26 11:42:00,
2013-11-26 05:52:00,67.0,67.0,29.71,ESE,110,21.0,22.0,97,-99.99,,,-99.99,,2013-11-26 11:52:00,
2013-11-26 06:00:00,69.0,67.0,29.66,ESE,120,20.0,21.0,93,-99.99,,,-99.99,,2013-11-26 12:00:00,
2013-11-26 06:42:00,69.0,67.0,29.66,ESE,120,20.0,21.0,93,-99.99,,,-99.99,,2013-11-26 12:42:00,
2013-11-26 06:52:00,69.0,67.0,29.66,ESE,120,20.0,21.0,93,-99.99,,,-99.99,,2013-11-26 12:52:00,
2013-11-26 07:00:00,-999.0,-99.9,29.74,NNW,330,21.0,23.0,-999,-99.99,,,-99.99,,2013-11-26 13:00:00,
2013-11-26 07:22:00,-999.0,-99.9,29.74,NNW,330,21.0,23.0,-999,-99.99,,,-99.99,,2013-11-26 13:22:00,
2013-11-26 07:32:00,-999.0,-99.9,29.74,NNW,330,21.0,23.0,-999,-99.99,,,-99.99,,2013-11-26 13:32:00,
2013-11-26 07:42:00,-999.0,-99.9,29.74,NNW,330,21.0,23.0,-999,-99.99,,,-99.99,,2013-11-26 13:42:00,
2013-11-26 07:52:00,-999.0,-99.9,29.74,NNW,330,21.0,23.0,-999,-99.99,,,-99.99,,2013-11-26 13:52:00,
2013-11-26 08:00:00,-999.0,-99.9,29.73,North,350,25.0,28.0,-999,-99.99,,,-99.99,,2013-11-26 14:00:00,
2013-11-26 08:22:00,-999.0,-99.9,29.73,North,350,25.0,28.0,-999,-99.99,,,-99.99,,2013-11-26 14:22:00,
2013-11-26 08:32:00,-999.0,-99.9,29.73,North,350,25.0,28.0,-999,-99.99,,,-99.99,,2013-11-26 14:32:00,
2013-11-26 08:42:00,-999.0,-99.9,29.73,North,350,25.0,28.0,-999,-99.99,,,-99.99,,2013-11-26 14:42:00,
2013-11-26 08:52:00,-999.0,-99.9,29.73,North,350,25.0,28.0,-999,-99.99,,,-99.99,,2013-11-26 14:52:00,
2013-11-26 09:00:00,49.0,48.0,29.73,North,10,28.0,30.0,93,-99.99,,,-99.99,,2013-11-26 15:00:00,
2013-11-26 09:43:00,49.0,48.0,29.73,North,10,28.0,30.0,93,-99.99,,,-99.99,,2013-11-26 15:43:00,
2013-11-26 09:54:00,49.0,48.0,29.73,North,10,28.0,30.0,93,-99.99,,,-99.99,,2013-11-26 15:54:00,
2013-11-26 10:00:00,50.0,48.0,29.74,North,350,26.0,30.0,93,-99.99,,,-99.99,,2013-11-26 16:00:00,
2013-11-26 10:43:00,50.0,48.0,29.74,North,350,26.0,30.0,93,-99.99,,,-99.99,,2013-11-26 16:43:00,
2013-11-26 10:54:00,50.0,48.0,29.74,North,350,26.0,30.0,93,-99.99,,,-99.99,,2013-11-26 16:54:00,
2013-11-26 11:00:00,51.0,49.0,29.75,NNW,340,28.0,30.0,92,-99.99,,,-99.99,,2013-11-26 17:00:00,
2013-11-26 11:42:00,51.0,49.0,29.75,NNW,340,28.0,30.0,92,-99.99,,,-99.99,,2013-11-26 17:42:00,
2013-11-26 11:52:00,51.0,49.0,29.75,NNW,340,28.0,30.0,92,-99.99,,,-99.99,,2013-11-26 17:52:00,
2013-11-26 12:00:00,55.0,51.0,29.74,NW,320,17.0,20.0,86,-99.99,,,-99.99,,2013-11-26 18:00:00,
2013-11-26 12:42:00,55.0,51.0,29.74,NW,320,17.0,20.0,86,-99.99,,,-99.99,,2013-11-26 18:42:00,
2013-11-26 12:52:00,55.0,51.0,29.74,NW,320,17.0,20.0,86,-99.99,,,-99.99,,2013-11-26 18:52:00,
2013-11-26 13:00:00,53.0,52.0,29.72,NW,320,22.0,25.0,95,-99.99,,,-99.99,,2013-11-26 19:00:00,
2013-11-26 13:42:00,53.0,52.0,29.72,NW,320,22.0,25.0,95,-99.99,,,-99.99,,2013-11-26 19:42:00,
2013-11-26 13:52:00,53.0,52.0,29.72,NW,320,22.0,25.0,95,-99.99,,,-99.99,,2013-11-26 19:52:00,
2013-11-26 14:00:00,52.0,49.0,29.72,NNW,330,21.0,24.0,89,-99.99,,,-99.99,,2013-11-26 20:00:00,
2013-11-26 14:42:00,52.0,49.0,29.72,NNW,330,21.0,24.0,89,-99.99,,,-99.99,,2013-11-26 20:42:00,
2013-11-26 14:52:00,52.0,49.0,29.72,NNW,330,21.0,24.0,89,-99.99,,,-99.99,,2013-11-26 20:52:00,
2013-11-26 15:00:00,53.0,49.0,29.73,NNW,330,17.0,20.0,88,-99.99,,,-99.99,,2013-11-26 21:00:00,
2013-11-26 15:43:00,53.0,49.0,29.73,NNW,330,17.0,20.0,88,-99.99,,,-99.99,,2013-11-26 21:43:00,
2013-11-26 15:53:00,53.0,49.0,29.73,NNW,330,17.0,20.0,88,-99.99,,,-99.99,,2013-11-26 21:53:00,
2013-11-26 16:00:00,51.0,48.0,29.77,NNW,330,18.0,21.0,88,-99.99,,,-99.99,,2013-11-26 22:00:00,
2013-11-26 16:42:00,51.0,48.0,29.77,NNW,330,18.0,21.0,88,-99.99,,,-99.99,,2013-11-26 22:42:00,
2013-11-26 16:53:00,51.0,48.0,29.77,NNW,330,18.0,21.0,88,-99.99,,,-99.99,,2013-11-26 22:53:00,
2013-11-26 17:00:00,52.0,47.0,29.78,North,360,17.0,20.0,82,-99.99,,,-99.99,,2013-11-26 23:00:00,
2013-11-26 17:43:00,52.0,47.0,29.78,North,360,17.0,20.0,82,-99.99,,,-99.99,,2013-11-26 23:43:00,
2013-11-26 17:53:00,52.0,47.0,29.78,North,360,17.0,20.0,82,-99.99,,,-99.99,,2013-11-26 23:53:00,
2013-11-26 18:00:00,51.0,47.0,29.82,WNW,300,16.0,18.0,89,-99.99,,,-99.99,,2013-11-27 00:00:00,
2013-11-26 18:42:00,51.0,47.0,29.82,WNW,300,16.0,18.0,89,-99.99,,,-99.99,,2013-11-27 00:42:00,
2013-11-26 18:52:00,51.0,47.0,29.82,WNW,300,16.0,18.0,89,-99.99,,,-99.99,,2013-11-27 00:52:00,
2013-11-26 19:00:00,51.0,48.0,29.85,NW,310,16.0,18.0,91,-99.99,,,-99.99,,2013-11-27 01:00:00,
2013-11-26 19:41:00,51.0,48.0,29.85,NW,310,16.0,18.0,91,-99.99,,,-99.99,,2013-11-27 01:41:00,
2013-11-26 19:52:00,51.0,48.0,29.85,NW,310,16.0,18.0,91,-99.99,,,-99.99,,2013-11-27 01:52:00,
2013-11-26 20:00:00,50.0,48.0,29.85,WNW,300,20.0,22.0,93,-99.99,,,-99.99,,2013-11-27 02:00:00,
2013-11-26 20:42:00,50.0,48.0,29.85,WNW,300,20.0,22.0,93,-99.99,,,-99.99,,2013-11-27 02:42:00,
2013-11-26 20:52:00,50.0,48.0,29.85,WNW,300,20.0,22.0,93,-99.99,,,-99.99,,2013-11-27 02:52:00,
2013-11-26 21:00:00,49.0,47.0,29.85,NW,310,23.0,25.0,93,-99.99,,,-99.99,,2013-11-27 03:00:00,
2013-11-26 21:44:00,49.0,47.0,29.85,NW,310,23.0,25.0,93,-99.99,,,-99.99,,2013-11-27 03:44:00,
2013-11-26 21:53:00,49.0,47.0,29.85,NW,310,23.0,25.0,93,-99.99,,,-99.99,,2013-11-27 03:53:00,
2013-11-26 22:00:00,49.0,45.0,29.88,NW,310,20.0,22.0,88,-99.99,,,-99.99,,2013-11-27 04:00:00,
2013-11-26 22:43:00,49.0,45.0,29.88,NW,310,20.0,22.0,88,-99.99,,,-99.99,,2013-11-27 04:43:00,
2013-11-26 22:52:00,49.0,45.0,29.88,NW,310,20.0,22.0,88,-99.99,,,-99.99,,2013-11-27 04:52:00,
2013-11-26 23:00:00,47.0,44.0,29.91,NW,310,22.0,26.0,92,-99.99,,,-99.99,,2013-11-27 05:00:00,
2013-11-26 23:42:00,47.0,44.0,29.91,NW,310,22.0,26.0,92,-99.99,,,-99.99,,2013-11-27 05:42:00,
2013-11-26 23:53:00,47.0,44.0,29.91,NW,310,22.0,26.0,92,-99.99,,,-99.99,,2013-11-27 05:53:00,